הכול
Luskintyre Airport (Luskintyre, NSW) YLSK מזג אוויר
There is no TAF data available at YLSK. Showing TAF data for YMND (5 mi דר'-מז').
MTL Terminal Area Forecast (no data for YLSK)
| Date | Time (AEST) | Flight Rules | Wind Dir. | Speed | Type | Height AGL (ft) | Visibility | Remarks | ||||||
|---|---|---|---|---|---|---|---|---|---|---|---|---|---|---|
There is no METAR data available at YLSK. Showing METAR data for YMND (5 mi דר'-מז').
Recent MTL METAR history (no data for YLSK)
| Date | Time (AEST) | Flight Rules | Wind Dir. | Speed | Type | Height AGL (ft) | Visibility | Temp (°C) | Temp (°F) | Dew Point (°C) | Dew Point (°F) | Rel. Humid. | Pressure | Density Altitude | Remarks |
|---|---|---|---|---|---|---|---|---|---|---|---|---|---|---|---|
| 05-ספט | 01:00 | VFR | 270° | 5 kt | 10000 meters | 15° | 59° | 7° | 44° | 59% | 1018 mb | -57 ft | |||
| 05-ספט | 00:00 | VFR | 290° | 5 kt | 10000 meters | 15° | 59° | 7° | 44° | 59% | 1018 mb | -57 ft | |||
| 04-ספט | 23:00 | VFR | 270° | 4 kt | 10000 meters | 14° | 57° | 8° | 46° | 67% | 1019 mb | -206 ft | |||
| 04-ספט | 22:00 | VFR | 270° | 3 kt | 10000 meters | 13° | 55° | 9° | 48° | 77% | 1019 mb | -326 ft | |||
| 04-ספט | 21:00 | VFR | 180° | 5 kt | 10000 meters | 13° | 55° | 11° | 51° | 88% | 1019 mb | -326 ft | |||
| 04-ספט | 20:00 | VFR | 110° | 1 kt | 10000 meters | 13° | 55° | 9° | 48° | 77% | 1018 mb | -297 ft | |||
| 04-ספט | 19:00 | VFR | 110° | 3 kt | 10000 meters | 16° | 60° | 12° | 53° | 77% | 1017 mb | 93 ft | |||
| 04-ספט | 18:00 | VFR | 340° | 2 kt | 10000 meters | 18° | 64° | 9° | 48° | 56% | 1017 mb | 333 ft | |||
| 04-ספט | 17:00 | VFR | 330° | 5 kt | 10000 meters | 23° | 73° | 9° | 48° | 41% | 1016 mb | 963 ft | |||
| 04-ספט | 16:00 | VFR | 320° | 7 kt | 10000 meters | 24° | 75° | 8° | 46° | 36% | 1016 mb | 1,083 ft | |||
| 04-ספט | 15:00 | VFR | 320° | 9 kt | 10000 meters | 24° | 75° | 8° | 46° | 36% | 1017 mb | 1,053 ft | |||
| 04-ספט | 14:00 | VFR | 330° | 7 kt | 10000 meters | 23° | 73° | 8° | 46° | 38% | 1018 mb | 903 ft | |||
| 04-ספט | 13:00 | VFR | 280° | 7 kt | 10000 meters | 22° | 71° | 8° | 46° | 41% | 1019 mb | 754 ft | |||
| 04-ספט | 12:00 | VFR | 260° | 6 kt | 10000 meters | 21° | 69° | 7° | 44° | 40% | 1020 mb | 604 ft | |||
| 04-ספט | 11:00 | VFR | 300° | 6 kt | 10000 meters | 20° | 68° | 7° | 44° | 43% | 1021 mb | 455 ft | |||
| 04-ספט | 10:00 | VFR | 250° | 7 kt | 10000 meters | 19° | 66° | 7° | 44° | 46% | 1022 mb | 305 ft | |||
| 04-ספט | 09:00 | VFR | 300° | 8 kt | 10000 meters | 18° | 64° | 10° | 50° | 59% | 1022 mb | 185 ft | |||
| 04-ספט | 08:00 | VFR | 310° | 8 kt | 10000 meters | 15° | 59° | 10° | 50° | 72% | 1022 mb | -175 ft | |||
| 04-ספט | 07:00 | VFR | 270° | 5 kt | 10000 meters | 12° | 53° | 11° | 51° | 94% | 1021 mb | -505 ft | |||
| 04-ספט | 06:00 | VFR | Calm | 10000 meters | 8° | 46° | 8° | 46° | 100% | 1021 mb | -985 ft | ||||
| 04-ספט | 05:00 | VFR | Calm | 10000 meters | 9° | 48° | 8° | 46° | 93% | 1020 mb | -836 ft | ||||
| 04-ספט | 04:00 | VFR | 310° | 7 kt | 10000 meters | 13° | 55° | 9° | 48° | 77% | 1020 mb | -356 ft | |||
| 04-ספט | 03:00 | VFR | 270° | 6 kt | 10000 meters | 14° | 57° | 9° | 48° | 72% | 1019 mb | -206 ft | |||
| 04-ספט | 02:00 | VFR | 280° | 4 kt | 10000 meters | 13° | 55° | 8° | 46° | 72% | 1019 mb | -326 ft |
כניסה לאתר
| אין תמיכה בדפדפן שלך. שדרג את הדפדפן שלך |
